Alexandria, MN

7:29 AM CST on December 06, 2019 (GMT -0600)
Chandler

Weather History for KAXN - October, 2019

Change the Weather History Date:

Thursday, October 10, 2019

  Actual Average Record
Temperature  
Mean Temperature 46 °F -  
Max Temperature 57 °F 56 °F 82 °F (1955)
Min Temperature 34 °F 37 °F 24 °F (1985)
Degree Days  
Heating Degree Days 19    
Moisture  
Dew Point 42 °F    
Average Humidity 93    
Maximum Humidity 100    
Minimum Humidity 67    
Precipitation  
Precipitation 0.51 in - - ()
Sea Level Pressure  
Sea Level Pressure 29.81 in    
Wind  
Wind Speed 9 mph ()    
Max Wind Speed 17 mph    
Max Gust Speed 25 mph    
Visibility 4.9 miles    
Events Rain    
Averages and records for this station are not official NWS values.
T = Trace of Precipitation, MM = Missing Value Source: Averaged Metar Reports

Daily Weather History Graph

Daily Weather History Graph

Search for Another Location

Airport or City:

Astronomy

Oct. 10, 2019 Rise Set
Actual Time 7:31 AM CDT 6:45 PM CDT
Civil Twilight 7:01 AM CDT 7:14 PM CDT
Nautical Twilight 6:26 AM CDT 7:49 PM CDT
Astronomical Twilight 5:52 AM CDT 8:23 PM CDT
Moon 5:59 PM CDT (10/10) 4:01 AM CDT (10/10)
Length of Visible Light 12h 13m
Length of Day
11h 13m
Waxing Gibbous, 91% of the Moon is Illuminated
Oct 10
Waxing Gibbous
Oct 13
Full
Oct 21
Last Quarter
Oct 27
New
Nov 4
First Quarter

Hourly Weather History & Observations

Time (CDT) Temp. Windchill Dew Point Humidity Pressure Visibility Wind Dir Wind Speed Gust Speed Precip Events Conditions
12:53 AM 57.9 °F - 46.9 °F 67% 29.91 in 10.0 mi SSE 11.5 mph - N/A   Overcast
1:53 AM 57.0 °F - 46.0 °F 67% 29.92 in 10.0 mi SSE 11.5 mph - N/A   Overcast
2:53 AM 53.1 °F - 46.0 °F 77% 29.90 in 10.0 mi SE 5.8 mph - N/A   Scattered Clouds
3:09 AM 54.0 °F - 46.0 °F 75% 29.89 in 10.0 mi SE 6.9 mph - N/A   Overcast
3:53 AM 54.0 °F - 48.0 °F 80% 29.88 in 10.0 mi SE 16.1 mph 20.7 mph N/A   Overcast
4:19 AM 53.1 °F - 50.0 °F 89% 29.87 in 7.0 mi SE 10.4 mph - N/A   Overcast
4:53 AM 52.0 °F - 50.0 °F 93% 29.87 in 4.0 mi SE 10.4 mph - N/A   Overcast
5:02 AM 52.0 °F - 50.0 °F 93% 29.87 in 2.5 mi SE 10.4 mph - N/A   Overcast
5:38 AM 52.0 °F - 50.0 °F 93% 29.86 in 3.0 mi SE 10.4 mph - N/A   Overcast
5:53 AM 52.0 °F - 50.0 °F 93% 29.86 in 2.5 mi SE 8.1 mph - N/A   Overcast
6:07 AM 52.0 °F - 50.0 °F 93% 29.86 in 4.0 mi SE 11.5 mph - N/A   Overcast
6:53 AM 51.1 °F - 50.0 °F 96% 29.88 in 3.0 mi SSE 12.7 mph - N/A   Overcast
7:53 AM 51.1 °F - 50.0 °F 96% 29.87 in 8.0 mi SSE 6.9 mph - N/A   Overcast
8:29 AM 51.1 °F - 50.0 °F 96% 29.85 in 2.0 mi SE 6.9 mph - N/A   Overcast
8:43 AM 51.1 °F - 50.0 °F 96% 29.85 in 2.5 mi SE 8.1 mph - N/A   Overcast
8:53 AM 51.1 °F - 50.0 °F 96% 29.85 in 2.5 mi SE 8.1 mph - N/A   Overcast
9:53 AM 52.0 °F - 51.1 °F 97% 29.87 in 2.5 mi SSE 6.9 mph - N/A   Overcast
10:41 AM 52.0 °F - 51.1 °F 97% 29.86 in 1.5 mi South 4.6 mph - N/A   Overcast
10:53 AM 46.0 °F 41.0 °F 45.0 °F 96% 29.88 in 1.8 mi West 10.4 mph - 0.00 in Rain Light Rain
11:00 AM 45.0 °F 40.6 °F 44.1 °F 97% 29.86 in 2.5 mi NW 8.1 mph - 0.01 in Rain Light Rain
11:37 AM 44.1 °F 38.1 °F 42.1 °F 93% 29.86 in 1.5 mi West 11.5 mph - 0.01 in   Overcast
11:47 AM 42.8 °F 37.5 °F 42.8 °F 100% 29.85 in 2.0 mi WNW 9.2 mph - 0.01 in   Overcast
11:53 AM 43.0 °F 38.2 °F 42.1 °F 97% 29.87 in 2.0 mi West 8.1 mph - 0.01 in   Overcast
12:00 PM 43.0 °F 38.8 °F 42.1 °F 97% 29.85 in 2.0 mi WNW 6.9 mph - N/A   Overcast
12:28 PM 44.1 °F 40.1 °F 43.0 °F 96% 29.83 in 4.0 mi NNW 6.9 mph - N/A   Overcast
12:53 PM 45.0 °F 41.8 °F 44.1 °F 97% 29.84 in 5.0 mi NW 5.8 mph - N/A   Overcast
1:33 PM 45.0 °F 42.6 °F 44.1 °F 97% 29.80 in 2.0 mi NW 4.6 mph - N/A   Overcast
1:53 PM 46.0 °F 43.9 °F 45.0 °F 96% 29.81 in 3.0 mi WNW 4.6 mph - N/A   Overcast
2:53 PM 46.0 °F 43.1 °F 44.1 °F 93% 29.77 in 7.0 mi NW 5.8 mph - N/A   Overcast
3:39 PM 45.0 °F 39.3 °F 44.1 °F 97% 29.75 in 1.8 mi West 11.5 mph - 0.03 in Rain Rain
3:53 PM 43.0 °F 36.8 °F 42.1 °F 97% 29.78 in 1.8 mi West 11.5 mph - 0.06 in Rain Rain
4:04 PM 42.1 °F 36.1 °F 41.0 °F 96% 29.76 in 2.5 mi West 10.4 mph - 0.01 in Rain Light Rain
4:22 PM 41.0 °F 33.5 °F 39.0 °F 93% 29.77 in 3.0 mi WNW 13.8 mph - 0.04 in Rain Light Rain
4:32 PM 39.9 °F 31.1 °F 37.9 °F 93% 29.77 in 2.5 mi West 17.3 mph 25.3 mph 0.05 in Rain Light Rain
4:38 PM 39.0 °F 30.3 °F 37.9 °F 96% 29.77 in 3.0 mi WNW 16.1 mph 25.3 mph 0.05 in Rain Light Rain
4:53 PM 39.0 °F 30.3 °F 37.9 °F 96% 29.78 in 5.0 mi NW 16.1 mph 20.7 mph 0.06 in Rain Light Rain
5:24 PM 39.0 °F 31.8 °F 37.9 °F 96% 29.75 in 2.5 mi NNW 11.5 mph - 0.01 in Rain Rain
5:42 PM 39.9 °F 34.5 °F 39.0 °F 97% 29.74 in 1.8 mi NNW 8.1 mph - 0.05 in Rain Light Rain
5:49 PM 39.2 °F 33.0 °F 39.2 °F 100% 29.74 in 2.5 mi NNW 9.2 mph - 0.07 in Rain Rain
5:53 PM 39.9 °F 33.9 °F 39.0 °F 97% 29.76 in 2.0 mi NNW 9.2 mph - 0.08 in Rain Rain
6:06 PM 39.9 °F 33.9 °F 39.0 °F 97% 29.74 in 5.0 mi NW 9.2 mph - 0.01 in Rain Light Rain
6:10 PM 39.9 °F 34.5 °F 39.0 °F 97% 29.73 in 3.0 mi NW 8.1 mph - 0.01 in Rain Rain
6:15 PM 39.9 °F 33.4 °F 39.0 °F 97% 29.74 in 1.8 mi NW 10.4 mph - 0.03 in Rain Rain
6:26 PM 39.9 °F 33.9 °F 39.0 °F 97% 29.74 in 3.0 mi NW 9.2 mph - 0.05 in Rain Light Rain
6:50 PM 39.2 °F 33.6 °F 37.4 °F 93% 29.75 in 5.0 mi WNW 8.1 mph - 0.11 in Rain Light Rain
6:53 PM 39.0 °F 32.3 °F 37.9 °F 96% 29.78 in 5.0 mi WNW 10.4 mph - 0.12 in Rain Light Rain
7:11 PM 39.0 °F 31.4 °F 37.9 °F 96% 29.74 in 8.0 mi WNW 12.7 mph - 0.00 in Rain Light Rain
7:40 PM 37.9 °F 30.5 °F 37.0 °F 97% 29.75 in 6.0 mi WNW 11.5 mph - 0.04 in Rain Light Rain
7:53 PM 37.9 °F 30.0 °F 37.0 °F 97% 29.77 in 4.0 mi WNW 12.7 mph - 0.07 in Rain Light Rain
8:31 PM 37.9 °F 30.0 °F 36.0 °F 93% 29.74 in 8.0 mi West 12.7 mph - 0.05 in   Overcast
8:53 PM 37.0 °F 28.9 °F 36.0 °F 96% 29.77 in 9.0 mi WNW 12.7 mph 21.9 mph 0.05 in Rain Light Rain
9:53 PM 36.0 °F 28.0 °F 35.1 °F 97% 29.76 in 8.0 mi WNW 11.5 mph - 0.05 in Rain Light Rain
10:06 PM 36.0 °F 27.1 °F 34.0 °F 93% 29.73 in 10.0 mi WNW 13.8 mph - 0.00 in Rain Light Rain
10:14 PM 36.0 °F 27.1 °F 34.0 °F 93% 29.74 in 10.0 mi WNW 13.8 mph - 0.00 in   Overcast
10:53 PM 35.1 °F 26.4 °F 33.1 °F 92% 29.79 in 10.0 mi West 12.7 mph 25.3 mph 0.01 in   Overcast
11:11 PM 35.1 °F 25.2 °F 33.1 °F 92% 29.72 in 10.0 mi WNW 16.1 mph - 0.00 in   Overcast
11:42 PM 35.1 °F 26.4 °F 33.1 °F 92% 29.72 in 10.0 mi West 12.7 mph 19.6 mph 0.00 in   Overcast
11:53 PM 34.0 °F 25.5 °F 33.1 °F 96% 29.76 in 10.0 mi WNW 11.5 mph - 0.00 in   Overcast